Weather observations for the past three days for
Jackson, Carroll Airport
Metric (Imperial)
Date Time (edt) Wind (kph) Vis. (km) Weather Sky Cond. Temperature (ºC) Relative Humidity Wind Chill (°C) Heat Index (°C) Pressure Precipitation (cm)
Air Dwpt 6 hour altimeter (cm) sea level (mb) 1 hr 3 hr 6 hr
Max. Min.
02 15:53 Vrbl 7 16.09 A Few Clouds FEW044 32.8 21.7 52% 36 76.48 1017.7
02 14:53 Calm 16.09 Fair CLR 32.2 22.2 56% 36 76.53 1018.4
02 13:53 Calm 16.09 Mostly Cloudy SCT043 BKN060 31.1 22.2 32.8 22.2 59% 35 76.56 1018.8
02 12:53 Calm 16.09 A Few Clouds FEW060 31.7 22.8 59% 36 76.61 1019.5
02 11:53 Calm 16.09 Fair CLR 30.6 22.8 63% 35 76.66 1020.0
02 10:53 Calm 16.09 Fair CLR 27.8 22.2 72% 30 76.63 1019.8
02 09:53 Calm 16.09 Fair CLR 25.6 21.7 79% 27 76.61 1019.8
02 08:53 Calm 16.09 Fair CLR 24.4 21.1 82% 25 76.61 1019.7
02 07:53 Calm 16.09 Fair CLR 22.2 21.1 23.9 21.7 94% 76.58 1019.3
02 06:53 Calm 16.09 Fair CLR 22.2 21.1 94% 76.56 1018.8
02 05:53 S 6 16.09 Fair CLR 22.2 21.1 94% 76.53 1018.4
02 04:53 Calm 16.09 Fair CLR 22.8 21.1 90% 76.5 1018.1
02 03:53 Calm 16.09 Fair CLR 23.3 21.7 91% 76.5 1018.1
02 02:53 Calm 16.09 Fair CLR 23.3 21.7 91% 76.5 1018.1
02 01:53 Calm 16.09 Fair CLR 23.9 21.7 28.9 23.9 88% 24 76.5 1018.2
02 00:53 Calm 16.09 Fair CLR 25 22.2 85% 26 76.5 1018.0
01 23:53 Calm 16.09 Fair CLR 25.6 22.2 82% 27 76.5 1018.0
01 22:53 Calm 16.09 Fair CLR 26.1 22.8 82% 28 76.5 1018.2
01 21:53 Calm 16.09 Fair CLR 26.7 22.2 76% 29 76.48 1018.0
01 20:53 Calm 16.09 Fair CLR 27.8 21.1 67% 30 76.45 1017.6
01 19:53 Calm 16.09 Fair CLR 28.9 20 32.8 28.9 59% 31 76.45 1017.6
01 18:53 Calm 16.09 Fair CLR 30.6 20.6 55% 33 76.48 1017.9
01 17:53 Calm 16.09 Fair CLR 32.2 20 48% 34 76.48 1017.8
01 16:53 Calm 16.09 A Few Clouds FEW045 32.2 20.6 50% 35 76.5 1017.9
01 15:53 Calm 16.09 Fair CLR 31.1 20.6 54% 34 76.5 1018.3
01 14:53 Calm 16.09 Fair CLR 31.7 21.1 53% 35 76.58 1019.0
01 13:53 Vrbl 6 16.09 A Few Clouds FEW041 31.1 21.1 31.7 22.2 55% 34 76.61 1019.4
01 12:53 NW 9 16.09 Fair CLR 30.6 21.7 59% 34 76.63 1019.6
01 11:53 Calm 16.09 Fair CLR 29.4 22.2 65% 33 76.66 1020.1
01 10:53 Calm 16.09 Fair CLR 27.2 22.2 74% 30 76.66 1020.3
01 09:53 Calm 16.09 Fair CLR 25 21.7 82% 26 76.66 1020.3
01 08:53 Calm 16.09 Fair CLR 23.9 21.1 84% 24 76.66 1020.4
01 07:53 Calm 16.09 Fair CLR 22.2 21.1 23.3 21.7 94% 76.63 1020.2
01 06:53 Calm 16.09 Fair CLR 21.7 20.6 94% 76.58 1019.2
01 05:53 Calm 16.09 Fair CLR 21.7 21.1 96% 76.53 1018.7
01 04:53 Calm 16.09 Fair CLR 22.8 21.1 90% 76.5 1018.2
01 03:53 Vrbl 6 16.09 Fair CLR 23.3 21.1 88% 76.48 1018.0
01 02:53 Calm 16.09 Fair CLR 22.8 22.2 96% 76.5 1018.2
01 01:53 Calm 16.09 Fair CLR 22.8 22.2 27.8 22.8 96% 76.53 1018.7
01 00:53 Calm 16.09 Fair CLR 25 21.7 82% 26 76.56 1018.8
31 23:53 Calm 16.09 Fair CLR 25 22.2 85% 26 76.56 1018.9
31 22:53 Calm 16.09 Fair CLR 26.7 21.7 74% 29 76.58 1019.2
31 21:53 Calm 16.09 Fair CLR 26.1 21.7 77% 28 76.53 1018.8
31 20:53 Calm 16.09 Fair CLR 26.7 22.8 79% 29 76.48 1018.0
31 19:53 Calm 16.09 Fair CLR 27.8 22.8 31.7 26.7 74% 31 76.48 1018.2
31 18:53 S 6 16.09 Fair CLR 28.9 23.3 72% 33 76.5 1018.4
31 17:53 Calm 16.09 Fair CLR 29.4 22.8 68% 33 76.53 1018.8
31 16:53 Calm 16.09 Fair CLR 29.4 20.6 59% 32 76.58 1019.1
31 15:53 Calm 16.09 Overcast FEW043 BKN090 OVC120 28.3 20.6 63% 30 76.61 1019.6
31 14:53 Vrbl 6 16.09 Partly Cloudy FEW037 SCT060 31.7 22.2 57% 36 76.61 1019.6
31 13:53 NW 7 16.09 Fair CLR 30 22.2 30.6 21.1 63% 33 76.66 1020.3
31 12:53 Vrbl 7 16.09 Fair CLR 28.9 22.8 70% 32 76.68 1020.8
31 11:53 Calm 16.09 Fair CLR 28.3 22.2 70% 31 76.71 1021.0
31 10:53 Calm 16.09 Fair CLR 26.7 21.7 74% 29 76.71 1020.9
31 09:53 Calm 16.09 Fair CLR 23.3 20.6 85% 76.68 1020.6
31 08:53 Calm 16.09 Fair CLR 21.7 19.4 87% 76.66 1020.6
31 07:53 Calm 16.09 Fair CLR 21.1 19.4 22.8 20.6 90% 76.63 1020.3
31 06:53 Calm 16.09 Partly Cloudy SCT055 21.1 19.4 90% 76.61 1019.7
31 05:53 Calm 16.09 Partly Cloudy SCT055 21.1 20 93% 76.58 1019.2
31 04:53 Calm 16.09 Fair CLR 21.7 19.4 87% 76.56 1018.9
31 03:53 Calm 16.09 Fair CLR 22.2 19.4 84% 76.53 1018.6
31 02:53 Calm 16.09 Fair CLR 22.2 20 87% 76.56 1018.8
31 01:53 Calm 16.09 Fair CLR 22.2 20.6 26.7 22.2 91% 76.56 1019.1
31 00:53 Calm 16.09 Fair CLR 23.3 21.1 88% 76.58 1019.2
30 23:53 Calm 16.09 Fair CLR 23.9 21.1 84% 24 76.58 1019.4
30 22:53 Calm 16.09 Fair CLR 25 21.1 79% 26 76.61 1019.6
30 21:53 Calm 16.09 Fair CLR 26.1 21.1 74% 28 76.58 1019.2
30 20:53 Calm 16.09 Fair CLR 26.1 21.1 74% 28 76.53 1018.8
30 19:53 Calm 16.09 Fair CLR 26.7 21.7 31.1 26.7 74% 29 76.5 1018.5
30 18:53 Calm 16.09 A Few Clouds FEW080 28.9 19.4 57% 30 76.53 1018.6
30 17:53 Calm 16.09 Fair CLR 30.6 20 53% 33 76.53 1018.4
30 16:53 Vrbl 7 16.09 Partly Cloudy SCT050 30.6 19.4 51% 32 76.53 1018.5
Date Time (edt) Wind (kph) Vis. (km) Weather Sky Cond. Air Dwpt Max. Min. Relative Humidity Wind Chill (°C) Heat Index (°C) altimeter (cm) sea level (mb) 1 hr 3 hr 6 hr
6 hour
Temperature (ºC) Pressure Precipitation (cm)